Regional Weather Roundup
Issued by NWS

Home | Current Version | Previous Version | Graphics & Text | Print | Product List | Glossary Off
Versions: 1 2 3 4 5 6 7 8 9 10 11 12 13 14 15 16 17 18 19 20 21 22 23 24 25 26 27 28 29 30 31 32 33 34 35 36 37 38 39 40 41 42 43 44 45 46 47 48 49 50

000
ASUS45 KBOU 171907
RWRCO

WEATHER ROUNDUP FOR COLORADO
NATIONAL WEATHER SERVICE DENVER/BOULDER CO
100 PM MDT WED SEP 17 2014

NOTE: "FAIR" INDICATES FEW OR NO CLOUDS BELOW 12000 FEET WITH NO
SIGNIFICANT WEATHER AND/OR OBSTRUCTIONS TO VISIBILITY.

COZ001>005-013-030-031-172000-
...NORTHWEST COLORADO...

CITY           SKY/WX    TMP DP  RH WIND       PRES   REMARKS
CRAIG          SUNNY     80  44  27 VRB5      30.15F
HAYDEN         SUNNY     79  37  22 W7        30.17F
MEEKER         SUNNY     81  41  24 SW6       30.16F
MOUNT WERNER   NOT AVBL
STEAMBOAT SPGS SUNNY     75  41  29 CALM      30.20F
WALDEN         SUNNY     72  32  23 SW6       30.29F
$$

COZ006>008-011-172000-
...WEST CENTRAL VALLEYS...

CITY           SKY/WX    TMP DP  RH WIND       PRES   REMARKS
GRAND JUNCTION SUNNY     80  41  24 VRB3      30.07F
MONTROSE       MOSUNNY   80  45  28 VRB5      30.14F
EAGLE          MOSUNNY   73  37  27 CALM      30.22F
RIFLE          MOSUNNY   78  42  27 CALM      30.12F
DELTA          MOSUNNY   83  40  21 SE5       30.09F HAZE
NUCLA          MOSUNNY   79  43  27 NW5       30.17F
$$

COZ017>023-064>068-172000-
...SOUTHWEST COLORADO...

CITY           SKY/WX    TMP DP  RH WIND       PRES   REMARKS
DURANGO        PTSUNNY   74  50  42 W6        30.20F
CORTEZ         SUNNY     77  52  41 SW5       30.16F
PAGOSA SPRINGS PTSUNNY   71  44  37 CALM      30.26F
TELLURIDE      NOT AVBL
WOLF CREEK PAS PTSUNNY   54  32  43 NE7       30.55F
$$

COZ009-010-012-014-032>034-037-058>063-172000-
...CENTRAL COLORADO...

CITY           SKY/WX    TMP DP  RH WIND       PRES   REMARKS
ASPEN          SUNNY     75  32  20 N12       30.25F
BUENA VISTA    MOSUNNY   76  19  11 CALM      30.26F
COPPER MTN     MOSUNNY   59  27  29 W7        30.59S
BERTHOUD PASS  FAIR      50  50 100 N7        30.63F
COTTONWOOD PAS MOSUNNY   72  21  15 CALM      30.41F
GUNNISON       SUNNY     70  37  30 SW5       30.28F
KREMMLING      SUNNY     70  32  24 SW3       30.27F
LEADVILLE      PTSUNNY   63  26  24 N8        30.40F
MONARCH PASS   MOSUNNY   52  32  46 E3        30.67F
SALIDA         MOSUNNY   80  30  16 SE7       30.30F
SUNLIGHT       MOSUNNY   61  34  36 CALM      30.52F
WILKERSON PASS NOT AVBL
$$

COZ069>075-172000-
...SAN LUIS VALLEY/SANGRE DE CRISTO MOUNTAINS...

CITY           SKY/WX    TMP DP  RH WIND       PRES   REMARKS
ALAMOSA        PTSUNNY   71  47  42 NE5       30.24F
LA VETA PASS   NOT AVBL
SAGUACHE       MOSUNNY   77  39  25 SW3       30.26F
$$

COZ035-036-038>040-172000-
...NORTHERN COLORADO FRONT RANGE...

CITY           SKY/WX    TMP DP  RH WIND       PRES   REMARKS
DENVER INTL AP MOSUNNY   86  37  17 VRB3      30.07F
DMNS CITY PARK   N/A     88  35  15 NE5       30.06F
AURORA         MOSUNNY   85  37  17 S2        30.10F
FRONT RANGE AP PTSUNNY   84  36  17 CALM      30.09F
ERIE MUNI ARPT MOSUNNY   87  31  13 CALM      30.05F
BOULDER MUN AP MOSUNNY   82  43  24 CALM      30.06F
CENTENNIAL     MOSUNNY   84  34  16 VRB6      30.11F
BROOMFIELD     NOT AVBL
FORT COLLINS   SUNNY     86  46  25 SE10      30.04F
LONGMONT       SUNNY     89  44  20 S5        30.06F
$$

COZ041-046-047-076>085-087-088-172000-
...PIKES PEAK/PALMER DIVIDE AND SOUTHERN FOOTHILLS...

CITY           SKY/WX    TMP DP  RH WIND       PRES   REMARKS
COLO. SPRINGS  PTSUNNY   86  36  16 S9G16     30.13F
A. F. ACADEMY  MOSUNNY   82  33  16 S8        30.15F
ELLICOTT       NOT AVBL
FALCON         PTSUNNY   78  33  19 W6        30.19F
FORT CARSON    MOSUNNY   84  40  21 SW6       30.11F
LIMON          MOSUNNY   87  36  16 N12       30.06F
MONUMENT HILL  SUNNY     79  30  17 NE6       30.19F
TRINIDAD       CLOUDY    80  42  25 S6        30.11F
$$

COZ042>045-048>051-090-091-172000-
...NORTHEAST COLORADO...

CITY           SKY/WX    TMP DP  RH WIND       PRES   REMARKS
GREELEY ARPT   SUNNY     88  45  22 SW6       30.03F
AKRON          SUNNY     85  45  24 NW14      30.02F
BURLINGTON     MOSUNNY   92  39  15 S12G17    29.98F
WRAY           SUNNY     87  46  24 SW8       29.96F
STERLING       SUNNY     86  55  35 SE3       29.97F
HOLYOKE        SUNNY     86  46  25 CALM      29.96F
FORT MORGAN    SUNNY     88  36  15 CALM      30.02F
$$

COZ086-089-092>099-172000-
...SOUTHEAST COLORADO...

CITY           SKY/WX    TMP DP  RH WIND       PRES   REMARKS
PUEBLO         MOSUNNY   88  41  19 SE6       30.01F
LA JUNTA       PTSUNNY   86  43  22 S6        30.00F
LAMAR          MOSUNNY   91  46  21 SW9       29.95F
SPRINGFIELD      N/A     85  49  28 VRB5      30.01F
$$



USA.gov is the U.S. government's official web portal to all federal, state and local government web resources and services.